Location: Kumla
(59.1265°N, 15.1401°E)
Time: 02:14:57
(UTC+01:00)

Vanguard 1 - Pass Details

Date: 03 December 2023
Orbit: 653 x 3825 km, 34.3° (Epoch: 03 March)

Event Time Altitude Azimuth Distance (km) Brightness Sun altitude
Rises 23:55:34 0° 269° (W) 7,667 14.6 -52.9°
Reaches altitude 10° 00:02:25 10° 257° (WSW) 6,859 14.2 -52.8°
Enters shadow 00:05:04 14° 251° (WSW) 6,587 14.0 -52.8°
Maximum altitude 00:17:26 23° 217° (SW) 5,784 - -52.6°
Drops below altitude 10° 00:31:07 10° 175° (S) 6,165 - -52.1°
Sets 00:36:51 0° 162° (SSE) 6,739 - -51.9°
